Terminal Aerodrome Forecast
Issued by NWS Honolulu, HI

Home | Current Version | Previous Version | Text Only | Print | Product List | Glossary On
Versions: 1 2 3 4 5 6 7 8 9 10 11 12 13 14 15 16 17 18 19 20 21 22 23 24 25
000
FTPA31 PHFO 251500 AAA
TAFHNL
TAF AMD
PHNL 251513Z 2515/2618 07008KT P6SM FEW025 SCT045
     FM252100 10010KT P6SM FEW030 SCT050
     FM260500 06008KT P6SM FEW025 SCT045
     FM260900 05006KT P6SM VCSH SCT025 BKN040=

USA.gov is the U.S. government's official web portal to all federal, state and local government web resources and services.